Location: Beetenbrück
(52.8113°N, 9.5946°E)
Time: 17:00:41
(UTC+00:00)

USA 234 - Pass Details

Date: 14 April 2026
Orbit: 1102 x 1106 km, 123.0° (Epoch: 4 January)

Event Time Altitude Azimuth Distance (km) Brightness Sun altitude
Rises 18:59:17 0° 60° (ENE) 3,929 5.8 -6.5°
Reaches altitude 10° 19:01:51 10° 65° (ENE) 2,969 5.2 -6.8°
Maximum altitude 19:08:16 54° 142° (SE) 1,318 3.4 -7.7°
Drops below altitude 10° 19:14:39 10° 219° (SW) 2,959 5.7 -8.5°
Sets 19:17:12 0° 224° (SW) 3,915 6.4 -8.9°
